GFSNE_925_temp_228.txt.gz
Temp
10 9 8 7 6 5 4 3 2 2 3 3 3 4 2 1 1 1 1 1 1 2 2 1 2 2 2 3 4 6 7 8 9 10 10 11 12 11
9 8 7 6 4 4 3 2 1 1 2 2 2 2 1 1 0 0 1 0 1 1 1 1 2 2 2 3 4 5 6 7 8 8 10 11 11 11
7 6 5 4 4 3 2 1 1 0 1 1 1 1 -0 -0 1 0 0 -0 0 1 1 2 2 2 2 3 3 4 6 7 8 8 9 10 10 10
6 5 4 3 3 2 1 1 0 1 0 0 0 -0 -0 -0 -0 -1 -0 -0 -0 1 1 1 2 2 2 2 3 4 5 6 8 8 8 9 10 10
5 4 4 3 2 1 0 0 0 0 -0 -1 -1 -1 -1 -1 -1 -1 -1 -1 -1 -0 1 2 2 2 3 3 4 5 5 6 8 8 7 9 9 10
4 4 3 2 1 0 -0 -0 -0 -1 -1 -1 -1 -1 -1 -1 -1 -1 -1 -1 -1 0 1 2 1 3 3 4 4 4 6 6 7 8 8 9 9 9
3 3 2 1 -0 -1 -1 -1 -1 -2 -2 -2 -2 -1 -1 -1 -1 -1 -1 -1 0 1 1 1 1 2 2 3 4 4 5 5 7 7 8 8 8 8
3 2 2 0 -0 -2 -1 -2 -2 -2 -3 -2 -2 -1 -1 -1 -1 -1 -1 -1 0 1 -0 0 0 1 0 1 2 5 6 6 7 8 7 8 9 8
2 1 1 -0 -2 -2 -2 -2 -2 -2 -2 -2 -2 -1 -2 -0 -1 -1 -0 -1 -0 -0 -1 -1 -0 -1 -1 -0 2 5 6 7 8 8 7 7 8 8
1 1 -0 -1 -1 -2 -2 -2 -2 -2 -2 -1 -1 -1 -1 -1 -0 -0 -0 -0 1 -0 -1 -1 -1 -1 -2 -1 1 5 6 8 7 6 6 7 8 7
-0 -1 -1 -1 -1 -1 -2 -3 -3 -3 -2 -1 -1 -1 -1 -0 -0 0 0 -0 -0 -0 -1 -2 -1 -1 -2 -3 -1 1 4 4 4 4 4 3 3 4
-1 -1 -1 -1 -1 -2 -2 -3 -3 -3 -2 -1 -1 -0 -0 -0 -0 -0 -1 -1 -1 -0 -1 -2 -1 -2 -1 -3 -3 -2 0 1 3 2 2 2 2 2
-1 -1 -1 -1 -2 -2 -3 -3 -3 -3 -3 -2 -1 -1 -1 -1 -1 -1 -1 -1 -2 -1 -2 -1 -2 -2 -3 -3 -4 -4 -3 -2 -2 -1 -1 1 2 2
-1 -1 -1 -2 -2 -2 -3 -3 -3 -3 -3 -2 -2 -2 -2 -2 -2 -2 -2 -2 -2 -2 -2 -1 -0 -1 -3 -4 -4 -4 -4 -4 -4 -3 -3 -1 -1 -1
-1 -1 -2 -2 -2 -3 -3 -3 -3 -3 -4 -3 -3 -3 -3 -3 -3 -3 -3 -3 -3 -3 -2 -2 -1 -1 -1 -4 -5 -5 -4 -5 -4 -3 -3 -3 -4 -3
-1 -1 -2 -2 -2 -3 -3 -3 -3 -3 -4 -4 -4 -3 -3 -3 -3 -3 -3 -3 -3 -4 -3 -3 -3 -2 -3 -4 -5 -5 -5 -6 -6 -4 -4 -5 -4 -4
-1 -2 -2 -2 -2 -3 -3 -3 -3 -4 -4 -4 -4 -3 -3 -3 -3 -3 -3 -3 -5 -5 -5 -5 -4 -4 -5 -5 -6 -6 -7 -6 -6 -6 -4 -6 -6 -5
-1 -2 -2 -2 -3 -3 -3 -3 -3 -3 -4 -4 -4 -4 -3 -3 -3 -4 -3 -4 -5 -5 -5 -5 -5 -5 -5 -6 -6 -6 -7 -7 -6 -6 -6 -7 -8 -7
-2 -2 -3 -3 -3 -3 -3 -3 -3 -4 -4 -4 -4 -4 -4 -3 -3 -4 -4 -4 -5 -5 -5 -4 -4 -5 -5 -6 -6 -6 -6 -7 -7 -7 -7 -8 -8 -8
-2 -3 -3 -3 -3 -3 -3 -3 -3 -4 -4 -4 -4 -4 -4 -3 -3 -4 -4 -4 -4 -4 -5 -5 -5 -5 -5 -6 -6 -6 -6 -6 -7 -8 -8 -8 -8 -7
-3 -4 -4 -4 -4 -4 -4 -4 -4 -4 -4 -4 -4 -5 -4 -3 -4 -4 -4 -4 -4 -5 -5 -5 -5 -5 -5 -6 -6 -6 -6 -6 -6 -7 -8 -7 -7 -7
-4 -4 -5 -4 -4 -5 -5 -4 -4 -4 -4 -4 -4 -5 -4 -3 -4 -4 -4 -4 -5 -5 -5 -5 -5 -6 -6 -6 -6 -6 -7 -7 -7 -7 -7 -7 -7 -7
-4 -5 -5 -5 -5 -5 -5 -5 -5 -5 -5 -5 -5 -4 -4 -4 -4 -4 -4 -4 -4 -5 -6 -6 -6 -6 -6 -6 -6 -7 -7 -7 -7 -6 -7 -6 -6 -6

GFSNE_925_temp_234.txt.gz
Temp
14 12 13 11 11 12 13 13 14 16 17 14 11 10 8 7 6 5 5 5 2 1 1 0 1 1 1 2 2 2 3 3 3 4 4 5 5 6
11 11 11 10 10 11 10 11 11 12 14 13 11 9 7 6 6 4 4 3 2 1 1 1 1 2 2 2 2 2 2 2 3 3 3 4 5 6
10 10 9 9 9 10 9 9 10 9 11 11 9 8 6 5 4 4 4 3 3 2 1 2 3 2 2 2 3 3 2 2 3 3 3 3 4 6
10 8 8 8 8 8 8 9 9 8 8 9 8 6 5 4 3 3 3 3 2 3 3 3 2 1 1 1 1 1 2 1 2 3 4 5 6 7
9 8 8 7 8 8 8 8 8 7 7 5 5 4 4 3 3 3 2 2 2 1 2 1 2 2 2 2 2 1 0 1 2 3 4 6 6 8
9 6 8 7 8 8 7 7 7 6 5 4 3 3 2 2 1 2 1 1 1 1 2 1 3 3 3 2 1 -0 1 2 3 3 5 6 7 8
6 7 7 6 6 7 6 6 5 5 3 3 2 1 1 1 1 1 0 1 1 2 2 2 4 3 2 1 0 1 2 4 4 6 6 6 7 8
5 4 3 4 4 4 4 3 3 4 3 3 2 1 1 1 1 0 0 1 1 1 1 1 3 3 2 1 -0 -0 1 3 5 6 7 7 7 9
4 4 3 2 1 1 0 -0 -1 -1 -1 1 1 1 0 0 -0 -0 0 0 0 1 1 1 2 1 1 -0 -0 -1 -0 2 6 7 8 8 8 9
4 3 3 2 2 2 3 2 1 0 -1 -1 -1 -0 -0 -1 -1 -1 -0 -0 1 1 -0 1 0 0 -1 -0 -0 -0 -0 2 6 7 8 8 8 8
3 2 3 2 1 1 1 1 -0 -1 -2 -2 -1 -1 -0 -1 -1 -1 -1 -1 1 1 -0 -1 -0 -0 -1 -0 -1 -0 -0 1 2 5 6 7 6 6
0 0 1 1 -0 -0 1 -0 -2 -2 -2 -2 -1 -1 -1 -1 -1 -1 -2 -1 -1 0 -1 -2 -1 -1 -0 -0 -1 -2 -1 -0 1 1 1 4 5 2
0 0 -0 -0 -1 -1 -1 -1 -1 -2 -2 -1 -1 -1 -1 -1 -1 -2 -1 -2 -2 -1 -2 -3 -1 -1 -0 -0 -1 -3 -3 -2 -2 -0 1 1 1 3
-0 -0 -1 -1 -1 -2 -2 -2 -2 -2 -2 -1 -1 -1 -1 -1 -2 -2 -2 -3 -3 -3 -3 -3 -2 -2 -1 0 -1 -3 -4 -3 -3 -3 -2 -1 -1 -0
-0 -1 -1 -1 -2 -2 -2 -2 -2 -2 -2 -2 -2 -2 -2 -2 -2 -2 -2 -2 -2 -3 -3 -3 -3 -2 -1 -1 -2 -3 -3 -4 -4 -3 -3 -3 -3 -2
-1 -1 -2 -2 -2 -2 -3 -2 -2 -2 -2 -2 -2 -2 -2 -2 -1 -1 0 -0 -1 -2 -3 -4 -3 -2 -2 -2 -2 -3 -3 -2 -4 -4 -4 -3 -2 -2
-1 -2 -2 -1 -1 -2 -2 -2 -2 -2 -2 -3 -2 -2 -1 -1 -0 -0 -0 0 -1 -1 -3 -4 -4 -4 -4 -3 -3 -3 -4 -4 -4 -4 -4 -4 -4 -4
-1 -1 -1 -1 -1 -1 -2 -2 -2 -2 -3 -2 -2 -2 -1 -0 -0 -1 -1 -1 -1 -2 -2 -2 -3 -2 -2 -4 -4 -4 -4 -4 -5 -5 -5 -5 -6 -6
-0 -1 -1 -2 -1 -1 -2 -2 -2 -2 -3 -3 -2 -2 -2 -1 -1 -1 -1 -1 -2 -2 -2 -2 -2 -1 -0 -2 -4 -5 -4 -5 -5 -5 -5 -6 -6 -7
-0 -1 -1 -1 -1 -1 -2 -2 -2 -2 -2 -2 -3 -3 -3 -2 -2 -1 -1 -2 -1 -1 -2 -3 -3 -3 -2 -2 -4 -6 -5 -5 -5 -6 -7 -7 -7 -7
-1 -1 -1 -1 -1 -2 -2 -3 -3 -3 -3 -3 -3 -3 -3 -2 -2 -2 -2 -2 -2 -2 -3 -4 -5 -4 -4 -4 -4 -5 -6 -6 -6 -6 -7 -6 -7 -7
-1 -2 -2 -2 -2 -3 -3 -3 -3 -3 -3 -3 -4 -4 -3 -2 -2 -2 -2 -2 -2 -3 -4 -4 -4 -3 -3 -3 -4 -5 -6 -7 -6 -6 -6 -6 -6 -5
-2 -3 -3 -3 -4 -3 -3 -3 -3 -3 -3 -3 -3 -3 -3 -3 -2 -3 -2 -2 -3 -3 -4 -3 -4 -4 -4 -4 -5 -5 -5 -5 -6 -6 -7 -6 -6 -6

GFSNE_925_temp_237.txt.gz
Temp
17 16 15 15 15 15 16 16 16 18 19 17 15 13 11 10 9 7 6 7 5 4 3 2 2 1 1 2 2 2 2 2 3 3 4 4 5 5
14 14 14 14 14 13 13 14 14 15 16 17 15 13 10 9 8 6 6 5 5 5 4 3 3 3 2 2 1 1 1 1 1 2 3 3 4 5
12 13 13 12 12 12 11 12 13 13 14 14 13 11 9 8 7 6 6 6 6 5 4 4 4 3 2 2 2 2 1 1 1 1 1 2 3 4
12 12 11 11 11 11 10 11 11 11 11 12 12 10 8 7 6 6 6 5 4 5 4 4 3 3 3 3 2 2 0 0 2 2 2 2 3 5
12 11 10 10 10 10 10 11 10 11 10 10 9 8 7 5 5 4 3 3 3 4 4 4 4 4 4 3 2 1 0 -0 2 3 3 4 5 5
11 10 10 10 10 9 10 10 10 10 9 8 7 6 5 4 2 2 2 2 2 2 4 3 4 4 4 3 2 1 0 0 0 2 5 6 6 6
10 10 9 9 9 10 10 9 9 9 8 7 6 4 3 2 2 2 1 1 1 2 2 3 4 4 4 2 1 1 1 0 0 4 6 6 7 7
8 8 8 8 9 9 8 8 7 8 7 7 6 4 3 2 1 1 1 1 2 1 2 2 3 3 2 1 1 1 1 1 1 5 7 7 7 7
8 7 7 6 6 6 6 6 5 5 4 3 4 3 2 1 0 0 0 1 1 1 1 2 2 1 1 1 -0 0 1 1 1 5 7 8 8 8
7 7 5 4 4 4 3 3 3 2 1 1 1 1 1 0 -0 -0 -0 -0 -0 1 1 1 0 -0 0 -0 -0 0 0 1 1 2 5 7 8 8
5 5 5 4 4 4 5 4 3 2 0 -0 -1 -0 -0 -0 -0 -1 -1 -1 0 1 -1 -1 -0 -0 0 -0 -0 0 0 0 1 1 2 3 5 6
4 4 4 3 3 3 2 1 1 -1 -1 -1 -1 -1 -0 -1 -1 -1 -1 -1 -1 -0 -2 -2 -1 -1 -0 0 0 -1 -1 -1 0 0 1 1 1 4
2 2 3 3 2 2 2 1 -0 -1 -1 -1 -1 -0 -1 -1 -1 -2 -2 -2 -2 -2 -2 -3 -2 -1 -1 -0 0 -1 -2 -2 -2 -1 -0 -0 0 -0
1 1 1 1 -0 -0 -1 -1 -1 -1 -1 -1 -1 -0 -1 -2 -2 -2 -2 -3 -2 -3 -3 -3 -3 -2 -2 -0 -1 -1 -2 -3 -3 -3 -2 -1 -0 -0
1 0 0 -0 -1 -2 -2 -2 -2 -1 -1 -1 -1 -1 -2 -1 -2 -1 -0 -1 -1 -2 -3 -3 -3 -2 -2 -1 -1 -2 -2 -3 -3 -3 -3 -3 -3 -2
-0 -1 -1 -2 -2 -2 -2 -2 -1 -1 -1 -1 -1 -2 -1 -1 -0 0 1 0 -0 -2 -2 -3 -3 -3 -2 -2 -2 -2 -3 -3 -3 -4 -3 -3 -3 -3
-1 -2 -2 -2 -2 -2 -2 -1 -2 -2 -2 -2 -1 -1 -0 -0 0 0 -0 0 -1 -1 -2 -2 -3 -3 -3 -3 -2 -3 -3 -4 -4 -4 -4 -5 -5 -4
-2 -1 -1 -1 -1 -1 -1 -1 -1 -2 -2 -1 -1 -0 -0 0 -0 -1 -1 -1 -1 -1 -2 -2 -2 -2 -2 -3 -4 -3 -4 -4 -4 -5 -5 -5 -6 -6
-1 -1 -1 -1 -1 -1 -1 -1 -1 -2 -2 -1 -1 -2 -1 -1 -0 -1 -1 -1 -1 -1 -2 -3 -2 -1 -0 -2 -4 -4 -4 -5 -5 -6 -6 -6 -7 -6
-1 -1 -1 -1 -0 -1 -1 -1 -2 -2 -2 -2 -2 -2 -2 -2 -1 -1 -1 -1 -1 -1 -2 -3 -3 -3 -2 -3 -4 -5 -5 -5 -6 -7 -7 -7 -7 -7
-1 -1 -1 -0 -0 -1 -1 -1 -2 -2 -2 -2 -3 -3 -2 -2 -2 -1 -1 -2 -1 -2 -3 -3 -4 -4 -4 -4 -4 -6 -6 -6 -6 -6 -7 -7 -7 -7
-1 -0 -0 -0 -1 -2 -2 -2 -2 -2 -3 -3 -3 -3 -2 -2 -2 -2 -1 -2 -2 -3 -3 -3 -3 -3 -3 -4 -5 -5 -6 -6 -6 -6 -6 -6 -6 -5
-1 -1 -2 -2 -2 -2 -2 -2 -2 -2 -3 -3 -3 -3 -2 -2 -2 -2 -2 -2 -3 -3 -3 -3 -3 -3 -4 -4 -4 -5 -5 -5 -6 -7 -6 -6 -6 -7

GFSNE_925_temp_243.txt.gz
Temp
19 18 18 18 18 19 20 19 17 13 12 14 13 13 13 12 11 10 9 8 7 6 5 5 5 5 4 3 3 2 2 2 2 2 2 2 3 3
18 18 18 18 18 19 19 19 18 15 13 14 13 12 11 10 10 9 8 7 6 6 5 4 4 4 4 4 3 2 2 1 1 1 1 1 2 2
18 18 18 18 18 18 17 16 16 16 13 12 13 11 10 9 9 8 8 7 6 5 5 4 4 4 4 4 3 2 1 1 0 0 1 1 1 1
18 18 18 18 17 17 17 15 15 15 15 11 10 10 9 8 8 8 7 6 6 5 4 3 4 4 4 3 3 2 2 1 1 -0 -0 -0 1 2
19 18 17 16 15 15 14 13 13 14 15 13 9 9 7 7 7 6 5 5 4 4 3 3 3 3 3 3 2 1 1 1 1 0 -0 0 2 3
18 17 16 16 13 12 11 12 13 13 12 12 9 8 7 5 5 4 3 2 3 2 2 2 2 2 2 1 0 0 1 1 2 1 -0 0 2 2
15 15 14 13 13 12 12 11 12 11 11 9 7 6 5 4 3 2 2 1 2 1 1 1 1 2 1 0 -0 -0 1 1 1 0 -0 1 1 1
12 12 12 11 11 11 11 10 11 11 9 8 7 6 4 4 2 2 1 0 0 1 -0 1 1 0 -1 -0 -0 -0 0 0 0 -2 -1 -0 1 0
13 11 10 10 10 10 9 10 10 11 11 10 8 6 4 3 2 1 0 -0 -0 -1 -0 0 0 -1 -1 -0 -0 -0 -1 0 -0 -2 -1 -1 -0 1
12 12 10 9 9 9 9 9 9 9 8 8 8 6 5 3 2 1 -0 -1 -1 -1 -1 -1 -1 -1 -1 0 0 -1 -1 -1 -1 -1 -1 -1 -1 1
10 9 9 8 8 8 9 8 7 6 5 6 5 3 2 1 0 -1 -1 -1 -1 -1 -2 -3 -2 -2 -1 1 0 -0 -2 -1 -2 -2 -1 -1 -1 2
7 6 6 6 7 7 8 7 3 2 3 1 1 1 0 -0 -1 -1 -2 -2 -2 -1 -3 -3 -2 -2 -2 -0 -0 -1 -2 -3 -4 -3 -2 -2 -0 0
4 4 4 6 5 5 6 5 3 1 1 1 0 -1 -1 -1 -2 -2 -2 -2 -2 -2 -3 -3 -2 -2 -2 -1 -1 -1 -3 -4 -4 -4 -3 -2 -2 -1
3 3 3 3 3 4 4 4 3 1 -0 -0 -1 -1 -1 -2 -2 -2 -2 -2 -2 -2 -3 -3 -3 -3 -2 -2 -2 -3 -4 -4 -5 -5 -4 -3 -2 -1
2 2 2 3 4 3 2 1 1 0 -0 -1 -1 -1 -1 -2 -2 -1 -1 -1 -1 -2 -3 -3 -2 -2 -2 -3 -3 -4 -5 -5 -5 -5 -5 -5 -5 -4
3 2 3 3 3 2 0 -0 0 0 0 -0 -1 -1 -1 -1 -0 -0 0 -1 -2 -2 -2 -2 -2 -2 -4 -3 -4 -5 -5 -6 -6 -5 -5 -4 -5 -5
2 1 0 -0 -1 -0 -1 -1 -1 -1 -1 -1 -1 -1 -1 -0 0 0 -0 -1 -2 -2 -2 -3 -3 -3 -3 -4 -4 -5 -6 -6 -6 -5 -5 -5 -5 -5
-0 -1 -2 -2 -1 -2 -2 -2 -1 -1 -1 -1 -1 -1 -0 -1 -1 -1 -1 -1 -2 -2 -2 -3 -3 -3 -3 -4 -5 -6 -6 -6 -6 -6 -6 -6 -6 -5
-1 -1 -2 -2 -2 -2 -2 -2 -2 -2 -1 -1 -0 -0 -0 -1 -1 -1 -1 -2 -3 -3 -3 -2 -2 -2 -6 -7 -6 -6 -6 -7 -7 -7 -7 -7 -7 -6
-0 -1 -1 -1 -2 -2 -2 -2 -2 -2 -1 -1 -0 -0 -0 -1 -1 -1 -1 -3 -3 -3 -4 -3 -3 -3 -5 -7 -6 -6 -6 -7 -7 -7 -8 -7 -7 -7
-1 -1 -1 -1 -2 -2 -2 -2 -2 -2 -1 -1 -1 -1 -1 -1 -1 -1 -2 -3 -3 -3 -4 -5 -5 -5 -6 -6 -6 -7 -6 -6 -6 -7 -7 -8 -8 -8
-1 -1 -1 -1 -2 -2 -2 -2 -2 -2 -2 -2 -2 -1 -1 -1 -2 -2 -3 -3 -3 -3 -4 -5 -5 -5 -6 -6 -7 -7 -7 -7 -6 -6 -6 -6 -6 -8
-1 -1 -1 -2 -2 -2 -2 -2 -2 -3 -3 -2 -2 -2 -2 -2 -2 -3 -3 -3 -3 -4 -4 -5 -5 -5 -6 -6 -7 -8 -8 -8 -8 -8 -8 -7 -8 -8

GFSNE_925_temp_246.txt.gz
Temp
18 18 18 18 18 18 18 19 17 12 11 12 13 13 13 13 13 12 11 10 8 7 6 5 5 4 4 4 4 3 3 2 2 2 2 2 2 3
18 18 18 18 18 18 18 18 18 17 13 13 12 12 12 12 11 11 10 9 8 6 6 5 4 4 4 4 3 3 2 2 2 1 1 1 2 2
18 18 17 17 17 17 17 17 16 16 13 9 12 11 10 11 10 9 8 8 7 6 6 4 4 4 4 3 3 2 2 2 2 2 0 0 1 1
17 17 17 17 17 16 16 16 15 16 15 9 8 8 9 9 9 8 8 7 6 6 4 3 3 3 3 3 2 2 1 1 2 2 1 -1 -0 -0
17 17 17 17 16 15 15 14 14 14 13 10 8 8 7 7 6 6 6 5 6 5 3 3 3 3 2 2 1 0 -0 1 1 1 -1 -1 -1 -1
18 18 17 17 16 15 14 13 12 11 10 10 9 7 6 5 6 6 5 5 5 3 2 3 2 2 2 1 -0 -0 -0 0 -1 -1 -2 -1 -1 -1
18 17 17 17 17 17 14 12 11 10 9 8 7 6 5 4 5 5 4 3 2 1 1 2 1 1 1 -1 -0 -0 -1 -0 0 1 -2 -2 -2 -1
18 17 16 16 15 13 13 12 14 11 9 8 7 6 5 6 5 4 2 0 0 0 0 1 0 0 -1 -0 -0 -1 -1 -1 -0 -1 -2 -2 -2 -2
18 16 15 13 13 11 10 11 11 10 11 10 7 8 5 6 5 2 1 0 -0 -1 0 -0 -0 -0 -1 0 0 -1 -1 -1 -1 -2 -2 -2 -2 -1
15 15 14 13 12 11 10 8 8 8 8 9 10 9 8 6 5 4 2 -0 -1 -1 -1 -2 -1 -2 -1 0 -0 -1 -1 -1 -3 -3 -2 -2 -1 0
13 13 12 11 11 10 8 6 5 5 6 7 7 6 5 4 3 2 -0 -1 -1 -2 -2 -3 -2 -2 -2 0 -1 -2 -2 -2 -4 -4 -3 -3 -1 0
10 10 9 9 8 6 6 5 1 1 3 3 3 2 1 -0 0 0 -1 -1 -1 -2 -3 -3 -2 -2 -2 -1 -1 -2 -3 -3 -4 -4 -3 -3 -3 -1
8 7 6 6 6 5 6 4 4 2 2 2 1 0 -0 -0 -1 -2 -1 -2 -2 -3 -3 -3 -2 -3 -3 -2 -2 -3 -4 -4 -6 -4 -3 -3 -2 -3
6 5 5 4 4 4 5 4 3 3 2 1 -0 -1 -1 -2 -2 -1 -2 -2 -2 -3 -3 -3 -2 -3 -4 -3 -3 -4 -5 -5 -6 -6 -5 -3 -2 -2
5 4 4 3 3 4 4 3 3 3 1 0 0 -1 -1 -2 -2 -2 -2 -2 -2 -2 -2 -2 -2 -3 -3 -4 -4 -5 -6 -5 -5 -6 -6 -5 -5 -4
3 2 3 2 3 3 3 3 2 1 1 0 -1 -1 -2 -2 -2 -2 -2 -2 -2 -3 -3 -2 -2 -3 -4 -5 -5 -6 -6 -6 -5 -5 -5 -6 -5 -4
2 1 1 1 -0 -1 -1 0 1 0 -0 -1 -1 -2 -2 -1 -1 -1 -1 -2 -2 -3 -4 -3 -3 -3 -5 -5 -6 -6 -6 -6 -6 -6 -5 -5 -6 -5
1 1 0 -0 -1 -1 -1 -1 -1 -1 -1 -1 -1 -2 -2 -1 -1 -1 -1 -2 -2 -2 -3 -4 -4 -4 -4 -6 -6 -6 -6 -7 -6 -6 -6 -6 -6 -6
1 0 -1 -1 -1 -1 -1 -1 -2 -1 -1 -1 -2 -1 -1 -1 -1 -1 -2 -2 -3 -3 -3 -2 -3 -3 -7 -9 -6 -6 -7 -7 -7 -7 -7 -7 -7 -6
0 -1 -1 -1 -1 -1 -1 -2 -2 -2 -1 -1 -1 -1 -1 -1 -1 -2 -3 -3 -4 -4 -4 -4 -3 -4 -6 -8 -6 -7 -6 -7 -7 -7 -7 -7 -7 -6
-1 -1 -1 -1 -1 -1 -2 -2 -2 -2 -1 -1 -2 -2 -1 -1 -1 -2 -3 -3 -4 -5 -6 -6 -6 -5 -6 -6 -7 -7 -7 -7 -6 -6 -7 -7 -7 -8
-1 -1 -1 -1 -2 -2 -2 -2 -2 -2 -2 -2 -2 -1 -1 -1 -2 -3 -3 -3 -4 -5 -6 -6 -6 -6 -6 -7 -8 -8 -8 -7 -7 -7 -6 -6 -7 -8
-1 -1 -1 -2 -2 -2 -2 -2 -2 -2 -2 -2 -1 -1 -1 -2 -2 -3 -3 -4 -5 -5 -6 -6 -6 -6 -7 -8 -8 -8 -8 -8 -8 -8 -8 -7 -7 -8

GFSNE_925_temp_249.txt.gz
Temp
18 18 18 18 18 18 18 18 18 17 12 14 14 15 15 14 15 14 13 11 10 10 10 9 7 6 5 5 4 4 3 2 2 2 2 2 2 3
18 17 18 18 17 18 17 17 17 17 16 14 13 13 14 13 13 11 11 10 10 10 9 7 6 5 4 4 4 3 3 2 1 1 1 1 1 2
17 18 17 17 17 17 16 16 16 16 16 12 11 12 10 12 10 9 9 9 8 8 8 6 5 4 4 4 3 3 2 1 1 -0 -0 -0 -0 0
18 17 17 17 17 17 16 16 15 15 16 12 10 8 10 9 11 7 8 8 7 7 6 4 3 3 3 3 2 1 0 -0 0 -1 1 -1 -1 -1
18 18 17 17 17 17 16 15 15 14 14 13 8 7 7 6 7 6 6 6 5 5 3 3 3 3 2 2 1 0 -1 -1 -0 -1 -1 -2 -2 -2
18 18 17 17 17 17 16 15 14 13 12 10 8 7 6 5 4 4 4 4 4 3 2 3 2 2 2 2 1 -0 -0 -1 -1 -1 -2 -2 -2 -2
17 17 17 17 17 17 16 15 14 12 10 8 7 5 4 3 4 4 3 3 2 2 2 2 2 1 2 1 0 -0 -1 -1 -2 -1 -3 -3 -3 -2
16 16 16 16 17 17 17 16 16 12 10 9 7 7 5 5 3 4 4 2 1 0 1 2 0 1 0 -0 -0 -0 -1 -1 -1 -3 -3 -3 -2 -2
14 14 15 16 15 15 15 13 12 12 11 9 8 7 5 4 4 4 4 2 0 -1 0 0 -0 0 -0 -0 -0 -1 -2 -1 -2 -3 -4 -4 -2 -1
13 13 14 14 14 14 13 11 11 10 10 9 8 7 7 6 7 5 3 1 -1 -1 -1 -2 -1 -2 -1 -0 -1 -2 -2 -1 -3 -4 -3 -3 -1 0
10 12 12 12 12 12 11 9 7 7 6 7 7 7 6 6 5 4 1 1 -1 -1 -1 -2 -2 -2 -2 -0 -2 -2 -3 -2 -3 -3 -4 -4 -3 -1
8 9 10 10 10 9 9 7 3 1 3 3 3 2 3 2 3 4 2 1 -0 -2 -2 -3 -2 -3 -2 -1 -2 -2 -3 -3 -3 -4 -5 -5 -4 -4
7 7 8 8 8 7 7 6 5 2 2 3 1 1 1 1 1 0 1 1 -1 -3 -3 -3 -2 -3 -3 -3 -3 -4 -5 -4 -5 -6 -5 -5 -5 -4
7 6 6 6 6 6 5 5 3 3 2 1 0 -1 -1 -1 -1 -0 -1 -2 -2 -2 -2 -2 -3 -3 -4 -4 -4 -4 -5 -5 -6 -5 -6 -5 -5 -3
5 5 6 5 4 4 4 3 3 2 1 -0 -1 -1 0 -0 -1 -2 -3 -3 -3 -2 -2 -2 -2 -4 -5 -5 -5 -7 -5 -5 -5 -5 -6 -6 -5 -6
4 3 4 3 3 3 2 2 3 2 2 -0 -1 -0 -1 -2 -3 -3 -3 -3 -3 -4 -3 -3 -3 -5 -5 -5 -6 -6 -6 -6 -5 -6 -6 -6 -6 -6
3 1 0 1 0 -1 -1 0 0 -0 1 0 -1 -2 -3 -2 -3 -2 -2 -3 -3 -5 -5 -5 -4 -5 -5 -5 -6 -6 -6 -6 -6 -6 -6 -6 -6 -6
2 0 -0 -0 -0 -1 -1 -1 -1 -0 -0 -1 -2 -2 -2 -2 -2 -2 -2 -2 -3 -4 -5 -5 -4 -4 -5 -6 -6 -6 -6 -6 -6 -6 -7 -6 -7 -6
2 0 0 -0 -0 -1 -1 -1 -1 -0 -0 -1 -2 -2 -2 -2 -2 -2 -2 -2 -3 -4 -4 -4 -4 -4 -8 -8 -7 -6 -6 -6 -7 -8 -8 -7 -7 -7
1 1 0 -0 -1 -1 -1 -1 -1 -2 -1 -1 -2 -2 -2 -2 -3 -3 -2 -3 -3 -4 -5 -4 -4 -4 -6 -8 -7 -7 -6 -6 -7 -7 -7 -7 -7 -7
1 0 -0 -0 -1 -1 -1 -1 -1 -2 -2 -2 -2 -2 -2 -3 -3 -2 -3 -4 -4 -5 -7 -7 -6 -5 -6 -6 -7 -8 -7 -7 -6 -7 -7 -7 -7 -7
0 -0 -0 -1 -1 -1 -1 -2 -2 -2 -2 -2 -2 -2 -2 -2 -3 -3 -4 -5 -6 -7 -7 -7 -6 -6 -6 -8 -9 -9 -8 -8 -8 -7 -6 -6 -6 -8
-0 -1 -1 -1 -1 -1 -2 -2 -2 -2 -2 -2 -2 -3 -2 -3 -3 -4 -4 -6 -6 -7 -7 -7 -7 -6 -8 -8 -9 -9 -9 -9 -9 -9 -8 -8 -7 -7

GFSNE_925_temp_252.txt.gz
Temp
18 17 17 18 17 17 18 17 18 17 15 17 16 17 17 16 16 13 13 12 12 11 9 8 9 8 8 8 6 5 5 4 2 2 2 2 2 2
17 17 17 17 18 18 17 17 16 17 17 18 18 16 16 15 13 13 12 12 11 9 8 8 7 8 7 6 5 5 4 3 1 1 1 1 1 1
18 18 17 17 17 18 16 17 16 16 16 17 15 14 14 14 12 12 12 12 10 8 7 7 6 6 6 4 4 4 3 1 0 -0 -0 -0 -0 0
19 17 17 17 17 17 17 16 16 16 15 16 13 12 11 10 10 11 11 10 7 6 6 5 6 5 4 4 3 2 1 0 -1 -1 -2 -2 -2 -1
18 17 17 17 17 17 16 16 16 15 15 15 11 9 8 8 7 7 8 7 5 4 5 5 4 3 3 3 2 1 1 -0 -1 -2 -2 -2 -2 -2
17 17 17 17 17 17 16 16 15 15 14 14 10 8 8 7 6 5 4 4 3 3 3 3 3 3 2 2 1 0 -0 -0 -1 -3 -3 -3 -2 -3
15 16 16 17 17 17 16 16 15 15 13 11 9 7 6 5 5 4 3 2 2 2 2 2 2 2 1 1 -0 -0 -0 -1 -2 -1 -2 -3 -3 -3
13 14 14 15 15 16 16 16 16 15 12 11 9 8 7 6 5 3 1 1 1 1 2 1 1 0 -0 -0 -0 -1 -1 -1 0 -1 -2 -2 -4 -3
12 12 13 13 14 14 15 14 14 14 13 13 10 9 8 7 5 3 2 3 0 1 2 0 -0 -0 -1 -0 -1 -1 -1 -1 -0 -2 -2 -3 -4 -3
10 10 11 12 12 13 12 12 12 11 11 11 10 10 9 8 7 4 4 3 1 0 1 -0 -0 -0 -1 -1 -1 -2 -2 -1 -2 -4 -4 -4 -4 -3
11 9 9 10 11 11 11 10 9 8 8 9 9 8 8 7 6 4 2 1 -1 -1 -0 -0 -2 -2 -2 -2 -2 -2 -2 -1 -4 -5 -5 -4 -4 -2
11 10 8 9 10 9 9 9 7 5 6 6 5 5 5 3 4 5 4 2 0 -1 -1 -1 -2 -2 -2 -2 -3 -3 -1 -2 -5 -5 -5 -5 -5 -4
9 9 8 8 8 8 8 8 8 5 3 5 3 2 2 3 4 4 4 4 2 -2 -1 -0 -2 -3 -3 -3 -3 -4 -3 -3 -6 -6 -6 -5 -4 -5
6 6 7 7 7 7 7 7 6 4 3 1 0 0 0 0 1 1 1 1 1 1 -2 -2 -3 -3 -3 -5 -4 -4 -4 -4 -5 -6 -6 -6 -5 -4
5 5 6 6 5 5 6 5 3 2 1 -0 -1 -1 -1 -1 -1 -2 -2 -2 -2 -2 -2 -2 -2 -3 -4 -5 -6 -6 -4 -5 -5 -6 -6 -6 -6 -6
5 5 4 3 3 4 2 2 2 1 1 -0 -1 -1 -2 -3 -3 -3 -3 -3 -4 -4 -4 -3 -3 -3 -5 -6 -6 -7 -6 -6 -6 -6 -6 -6 -6 -5
3 3 1 1 0 -0 -1 -0 0 0 -0 -1 -2 -2 -3 -3 -3 -3 -3 -3 -5 -5 -6 -5 -5 -5 -5 -5 -6 -6 -7 -7 -6 -6 -6 -6 -7 -6
2 1 -0 0 -0 -1 -1 -1 -0 -0 -1 -1 -2 -2 -3 -3 -3 -3 -3 -4 -5 -6 -6 -6 -5 -6 -6 -6 -5 -6 -6 -7 -7 -7 -6 -6 -7 -7
3 1 0 -0 -0 -0 -1 -1 -1 -1 -0 -1 -2 -2 -2 -2 -3 -3 -3 -4 -5 -5 -6 -5 -4 -4 -6 -6 -7 -6 -7 -8 -8 -8 -7 -7 -7 -7
2 1 1 0 0 -0 -1 -1 -1 -1 -1 -2 -2 -2 -2 -2 -3 -3 -4 -4 -4 -5 -5 -4 -4 -5 -6 -7 -7 -7 -6 -6 -7 -8 -8 -7 -7 -7
1 1 1 1 0 -0 -1 -1 -1 -2 -2 -2 -2 -2 -2 -3 -3 -4 -4 -4 -4 -6 -7 -6 -5 -5 -6 -7 -8 -8 -7 -7 -6 -7 -7 -7 -7 -7
0 1 1 1 0 -1 -1 -1 -1 -2 -2 -2 -2 -2 -3 -3 -4 -5 -5 -5 -6 -7 -7 -8 -7 -7 -7 -8 -9 -9 -8 -8 -7 -6 -6 -6 -6 -7
0 1 1 0 -0 -1 -1 -1 -2 -2 -2 -2 -2 -3 -3 -4 -4 -4 -5 -6 -7 -7 -8 -8 -8 -7 -8 -9 -9 -9 -9 -9 -8 -8 -8 -7 -7 -7

GFSNE_925_temp_255.txt.gz
Temp
17 17 17 17 16 16 16 17 17 18 20 19 18 19 19 19 19 18 15 15 13 12 11 13 10 9 9 8 7 5 5 4 4 3 2 2 2 2
17 17 16 16 16 16 16 16 16 17 18 19 18 18 18 18 17 16 14 14 12 11 11 10 7 8 7 6 7 5 4 4 2 1 1 1 1 1
18 17 17 17 16 16 17 17 16 16 17 18 17 16 16 15 14 12 11 11 11 10 9 7 6 6 6 5 5 4 3 3 2 1 0 0 -0 -0
16 18 20 23 18 16 16 17 16 16 16 17 16 15 14 14 13 11 9 9 9 9 8 5 4 4 5 4 3 3 2 2 1 0 0 1 -2 -1
17 18 19 19 16 16 18 16 16 16 16 16 15 13 11 10 9 7 7 8 8 7 5 4 4 4 3 3 2 2 1 0 1 1 1 -2 -2 -2
16 16 16 16 16 17 16 16 16 16 16 15 13 11 10 9 8 6 5 5 5 4 3 3 3 2 2 2 2 2 1 1 0 0 1 -2 -3 -3
14 15 16 16 16 17 17 16 16 16 15 14 11 9 8 7 7 6 4 3 2 2 2 2 2 2 2 1 0 -0 0 -0 1 0 -3 -3 -3 -3
13 14 14 14 15 15 15 15 15 15 14 13 11 9 9 8 7 5 3 1 1 1 2 1 1 0 1 -0 -0 -0 -1 1 1 1 -1 -3 -4 -1
13 13 13 14 14 14 14 14 14 14 14 14 12 11 11 11 9 5 4 3 2 1 2 -1 -0 -0 -0 -1 -1 -1 0 0 0 -4 -4 -4 -2 -1
12 12 11 11 11 12 12 12 13 13 13 12 12 13 13 12 10 9 4 2 2 1 1 -1 -1 -1 -1 -2 -1 0 0 0 -3 -4 -4 -4 -3 0
12 12 10 10 9 10 10 11 11 11 11 11 11 10 10 10 9 6 2 1 -1 -1 -0 -1 -2 -2 -2 -2 -1 -1 0 -3 -5 -4 -4 -4 -2 -1
12 12 10 8 8 9 9 10 9 9 8 9 8 8 7 7 6 6 4 2 -1 -1 -0 -1 -2 -2 -2 -3 -2 -2 -4 -4 -5 -5 -5 -5 -4 -2
10 11 11 8 7 8 8 9 9 9 6 6 5 4 3 3 2 3 2 3 3 -1 0 0 -2 -2 -1 -2 -4 -3 -4 -5 -5 -5 -5 -5 -5 -4
8 8 8 7 7 7 6 6 7 6 4 3 1 0 0 1 1 2 2 3 3 3 -0 -0 -2 -1 -1 -2 -2 -4 -5 -5 -5 -5 -5 -4 -4 -4
7 7 6 6 6 7 6 5 5 4 2 1 -0 -1 -1 -0 -0 0 1 0 -1 -2 -2 -1 -1 -3 -2 -2 -3 -4 -3 -5 -5 -5 -5 -5 -5 -5
4 3 5 5 6 4 4 2 2 2 1 0 -1 -2 -2 -2 -2 -2 -3 -3 -4 -4 -3 -3 -3 -2 -3 -3 -4 -4 -4 -4 -5 -5 -5 -5 -5 -5
3 2 2 2 3 2 0 1 1 0 0 -1 -2 -2 -3 -3 -3 -3 -3 -4 -4 -4 -5 -5 -5 -5 -5 -4 -4 -4 -5 -5 -5 -5 -5 -6 -6 -6
2 2 1 2 1 1 -0 -1 -0 -0 -1 -2 -2 -2 -3 -3 -3 -3 -3 -2 -4 -5 -5 -5 -5 -5 -5 -6 -5 -5 -5 -5 -5 -5 -5 -5 -6 -6
1 1 2 1 1 0 0 -1 -1 -0 -1 -2 -2 -2 -2 -3 -3 -3 -2 -3 -4 -4 -5 -5 -4 -2 -1 -4 -6 -6 -6 -6 -6 -5 -5 -6 -6 -7
1 1 1 2 1 0 -0 -1 -1 -1 -1 -1 -2 -2 -2 -2 -2 -3 -2 -3 -4 -4 -4 -4 -3 -3 -2 -3 -5 -7 -6 -5 -5 -6 -6 -6 -7 -6
0 1 1 2 1 1 0 -0 -1 -1 -1 -2 -2 -2 -2 -2 -2 -3 -2 -3 -3 -3 -4 -4 -4 -5 -5 -5 -5 -6 -7 -6 -6 -5 -5 -5 -5 -5
1 1 1 2 1 1 -0 -1 -1 -1 -2 -2 -2 -2 -2 -2 -3 -3 -3 -3 -3 -4 -5 -7 -6 -5 -5 -4 -5 -6 -6 -7 -7 -6 -6 -5 -4 -5
1 1 1 2 2 1 -0 -1 -1 -2 -2 -2 -2 -2 -3 -3 -4 -4 -4 -4 -5 -6 -6 -6 -6 -5 -5 -5 -6 -6 -7 -6 -6 -7 -8 -7 -7 -7